Wind_Speed
19 20 20 20 18 15 14 14 14 14 15 15 16 16 16 16 15 15 14 14 13 13 13 14 13 12 10 9 8 8 8 8 8 9 10 10 11 11 12 12 13 14
21 21 21 19 16 15 14 13 13 14 15 15 15 15 16 16 15 15 14 13 13 14 14 13 12 11 10 9 9 8 8 8 8 9 10 10 10 11 12 13 13 14
21 21 19 18 16 15 13 13 14 14 14 14 14 14 14 14 14 13 13 13 13 13 13 12 11 11 10 9 9 8 8 8 9 9 10 10 10 11 12 12 13 14
21 20 19 17 16 14 13 13 13 13 13 12 12 12 13 13 13 12 12 12 12 12 12 12 11 11 10 10 9 9 8 9 9 10 10 10 10 11 11 12 13 14
21 20 19 17 15 14 13 13 13 12 12 12 12 12 12 12 11 10 10 11 11 12 12 12 11 11 10 10 10 9 9 9 10 10 10 10 10 11 11 12 13 13
20 19 18 17 15 14 13 13 12 12 12 12 12 11 10 10 9 9 9 10 11 12 12 12 11 11 11 11 10 10 10 10 11 10 10 9 9 10 11 12 12 13
20 19 18 16 15 14 14 14 13 12 12 11 10 9 9 8 8 9 10 10 11 11 11 11 11 11 12 11 11 11 11 11 11 10 9 9 9 10 10 11 12 13
21 20 18 16 15 16 15 15 13 12 11 10 9 8 8 8 8 9 10 11 11 11 11 11 12 12 12 12 12 12 12 12 11 10 9 9 9 10 10 11 12 13
22 21 18 16 16 17 17 16 14 12 11 10 9 8 8 9 9 10 11 11 11 11 12 12 13 13 13 13 13 13 12 12 11 10 9 9 9 10 10 11 11 12
23 21 19 17 18 19 19 17 15 13 12 11 10 9 10 10 11 11 11 12 12 12 13 13 14 14 14 15 14 13 13 12 10 10 9 9 9 10 10 10 11 11
23 22 20 19 19 20 20 18 15 14 13 12 11 11 12 12 12 13 13 13 13 14 14 15 15 16 16 15 14 13 13 11 10 10 10 10 9 9 10 10 10 10
23 22 21 20 20 21 21 19 17 16 15 14 14 14 14 14 14 14 14 14 15 15 16 16 17 17 17 15 14 13 12 11 10 11 10 10 9 9 9 9 9 9
23 22 22 21 21 22 21 20 18 18 17 17 16 16 15 16 16 15 15 16 16 17 17 18 18 18 17 15 14 13 12 11 10 10 10 10 10 9 9 9 9 8
23 22 22 22 22 22 22 21 20 20 19 19 18 17 16 17 17 17 17 17 17 18 18 19 18 18 17 16 14 13 12 11 11 10 11 10 10 9 8 8 8 8
23 23 23 23 23 23 23 22 22 22 21 21 19 18 18 18 18 18 18 18 18 19 19 19 19 18 17 16 14 13 12 11 11 10 11 11 10 9 8 8 7 7
24 24 24 24 24 24 24 24 24 24 23 22 21 19 19 19 19 19 19 19 19 19 19 19 19 18 17 16 14 13 12 12 11 11 11 11 10 9 8 8 7 7
25 25 25 26 26 26 26 26 25 25 24 23 21 20 20 20 20 20 20 20 20 20 20 20 19 18 17 16 15 14 13 12 11 11 11 11 10 10 8 8 7 7
26 26 26 27 26 26 27 27 27 26 25 23 22 21 20 20 20 20 20 20 20 20 20 20 19 19 18 16 15 14 13 13 12 11 11 11 10 10 8 8 7 7
27 27 27 28 27 27 28 28 27 25 24 23 22 21 20 19 19 19 19 20 21 21 21 20 20 19 18 16 15 15 14 13 13 12 11 11 11 10 8 7 7 6
29 28 28 28 28 28 28 27 26 25 24 23 21 20 20 20 20 19 19 20 21 21 21 20 20 20 19 17 16 16 15 14 13 12 12 12 11 9 8 7 7 7
30 29 29 29 29 28 28 26 25 24 23 22 21 21 21 21 20 19 19 20 21 21 21 21 21 21 20 18 17 16 16 14 13 13 12 11 10 9 7 7 7 7
32 31 31 31 30 29 28 26 25 25 25 24 23 23 23 22 20 18 18 19 21 22 22 22 22 22 21 19 18 17 16 15 14 13 12 11 10 8 8 7 7 7
33 33 32 31 30 29 28 26 25 26 26 26 25 25 25 23 20 18 19 21 23 23 22 22 23 22 21 20 19 18 17 16 15 13 11 10 9 9 8 8 8 8
32 32 32 31 30 29 28 27 27 27 27 27 26 26 27 24 20 19 21 23 23 23 23 23 23 23 23 21 20 18 18 16 15 13 11 10 9 9 9 8 8 8
27 29 30 29 28 29 29 29 29 28 28 28 28 28 27 24 20 19 21 22 22 23 23 23 24 24 23 21 19 18 17 16 14 13 11 10 10 10 9 9 9 9
29 30 29 26 27 28 28 28 27 26 25 25 27 27 24 21 19 19 20 21 22 23 23 24 24 23 22 21 19 18 17 16 15 13 12 12 12 11 11 10 10 10
Wind_Direction
214 214 214 216 216 218 223 224 222 223 226 232 238 239 238 239 246 255 261 264 267 272 276 276 275 274 277 281 280 279 281 286 292 299 303 306 309 313 317 319 321 322
216 217 218 218 218 222 225 223 225 228 232 237 240 239 239 242 250 256 259 262 266 271 272 270 270 272 275 273 271 272 277 285 294 299 302 305 309 314 317 319 321 322
218 219 219 220 221 224 225 225 231 237 240 242 241 240 241 244 249 252 256 262 267 267 266 266 269 270 268 265 265 270 276 285 293 296 300 304 309 312 315 318 321 323
218 219 219 221 222 222 225 230 237 242 244 244 241 240 239 241 245 251 258 264 266 265 264 267 268 264 261 260 263 269 275 284 289 293 297 301 305 310 314 318 322 323
216 216 218 220 220 222 228 234 238 241 242 241 238 236 236 240 247 254 262 266 266 266 266 265 262 258 258 259 263 268 274 282 287 290 293 297 304 311 315 320 322 321
215 215 218 219 219 225 231 233 235 237 237 234 232 234 237 242 251 258 264 267 267 267 264 260 257 256 258 259 263 269 276 282 285 285 290 297 305 311 316 319 320 320
216 216 218 219 221 226 228 228 230 230 229 229 229 234 239 247 257 262 265 267 267 266 261 258 257 257 258 260 264 271 277 281 281 283 290 298 304 310 316 318 319 319
215 216 217 219 221 224 224 224 224 224 226 229 232 239 245 254 262 265 267 268 267 266 262 260 260 258 260 263 267 273 276 278 280 283 289 296 303 310 315 316 318 319
214 215 216 218 222 223 222 220 221 225 230 233 238 246 254 261 266 268 270 271 270 268 265 263 261 261 263 265 269 273 275 277 279 283 288 295 302 309 313 317 318 318
215 215 216 219 224 224 221 221 225 230 233 237 245 255 263 268 271 272 275 275 273 270 266 264 263 262 264 266 269 271 273 275 278 281 286 293 301 308 312 315 315 316
217 217 218 222 226 225 223 224 230 234 236 241 251 261 267 273 275 276 277 277 275 271 267 264 262 262 263 265 268 270 272 274 276 279 285 292 299 305 309 312 312 314
221 220 221 225 229 228 226 228 233 237 238 245 255 262 268 274 276 276 276 274 272 269 265 263 261 261 262 264 267 269 270 272 274 278 285 290 296 300 305 308 308 312
224 224 225 228 231 230 228 231 235 237 241 249 256 261 267 273 275 275 274 271 269 265 262 261 260 260 262 263 266 268 268 270 272 277 283 287 291 296 300 303 304 309
226 226 227 229 232 232 231 233 236 238 244 250 255 260 266 272 273 273 272 269 266 263 261 260 259 260 262 263 264 265 266 268 271 276 280 283 288 292 295 296 298 304
228 229 230 231 234 234 235 236 237 239 245 250 254 260 266 270 272 272 270 267 265 262 260 259 258 259 261 261 262 263 263 266 269 272 276 279 284 287 287 288 292 298
229 231 232 233 236 237 237 238 238 241 246 250 254 261 266 269 270 270 268 267 265 262 260 259 258 258 259 259 260 260 260 263 266 269 272 275 278 279 279 281 286 294
230 232 233 235 237 238 239 239 239 242 247 250 255 261 266 269 269 269 268 266 264 262 260 258 258 257 257 257 257 256 257 259 262 264 268 271 272 273 273 275 282 292
232 234 236 237 238 240 241 241 241 245 251 254 258 262 266 268 269 269 269 267 264 262 259 258 257 257 256 255 253 252 253 254 257 260 262 265 266 266 267 269 277 289
232 235 238 239 239 240 241 241 245 251 256 258 260 263 266 268 271 272 271 269 265 262 259 257 257 256 254 253 250 248 249 250 253 255 256 259 260 259 261 265 275 285
233 236 239 240 240 241 242 244 248 253 257 260 262 264 266 269 273 276 275 271 266 262 260 258 256 255 252 250 247 245 244 245 248 250 251 253 254 254 256 262 272 282
234 236 239 241 242 244 244 244 247 251 255 260 262 263 266 272 275 276 276 274 268 263 260 258 256 253 250 247 244 242 243 244 244 244 246 248 248 248 251 256 265 274
236 237 240 242 243 245 246 245 247 250 254 258 260 263 269 274 273 272 276 277 270 263 259 257 254 251 249 246 243 242 244 244 242 239 237 240 241 241 243 248 258 267
238 239 241 243 245 247 247 248 249 251 254 257 260 265 270 270 266 268 275 273 266 259 256 254 252 250 249 246 243 242 242 242 240 237 231 229 233 235 237 242 252 262
241 242 242 244 247 248 247 248 249 251 255 258 261 267 267 261 258 267 273 268 260 256 255 254 252 250 249 247 245 245 246 246 246 244 237 232 232 233 234 239 248 255
237 242 245 245 247 249 250 251 253 256 258 259 262 265 261 253 255 265 268 263 258 256 255 254 252 251 250 249 248 249 251 253 253 252 248 245 242 238 234 236 243 249
231 239 245 244 244 246 248 254 260 261 258 257 260 261 254 250 258 264 262 259 257 255 254 254 252 250 249 248 247 248 250 249 246 243 243 243 240 235 231 232 237 243
Height
3154 3156 3157 3158 3159 3159 3160 3161 3161 3162 3163 3163 3164 3164 3165 3165 3165 3166 3166 3165 3165 3165 3165 3165 3165 3164 3163 3163 3162 3162 3162 3161 3161 3161 3160 3160 3159 3158 3158 3157 3156 3155
3153 3154 3155 3156 3157 3158 3159 3160 3160 3161 3161 3162 3162 3163 3163 3163 3164 3164 3164 3164 3163 3163 3163 3163 3163 3162 3161 3161 3161 3160 3160 3160 3160 3159 3159 3158 3158 3157 3156 3156 3155 3154
3151 3152 3153 3155 3156 3157 3158 3158 3159 3159 3160 3160 3160 3161 3161 3162 3162 3162 3162 3162 3162 3162 3161 3161 3161 3160 3160 3159 3159 3159 3159 3158 3158 3158 3157 3157 3156 3156 3155 3154 3154 3153
3149 3150 3152 3153 3155 3156 3156 3157 3157 3157 3158 3158 3159 3159 3160 3160 3160 3160 3160 3160 3160 3160 3159 3159 3159 3158 3158 3158 3158 3157 3157 3157 3157 3156 3156 3155 3155 3154 3154 3153 3152 3151
3148 3149 3150 3152 3153 3154 3155 3155 3155 3156 3156 3157 3157 3158 3158 3158 3158 3158 3158 3158 3158 3158 3157 3157 3157 3157 3156 3156 3156 3156 3156 3156 3155 3155 3154 3154 3153 3153 3152 3151 3151 3150
3146 3148 3149 3151 3152 3152 3153 3153 3154 3155 3155 3155 3156 3156 3156 3156 3156 3156 3156 3156 3156 3156 3156 3155 3155 3155 3155 3155 3155 3155 3154 3154 3154 3153 3153 3152 3152 3151 3150 3150 3149 3148
3145 3146 3148 3149 3150 3151 3151 3152 3153 3153 3154 3154 3154 3154 3154 3155 3154 3155 3155 3155 3154 3154 3154 3154 3154 3154 3154 3154 3153 3153 3153 3153 3152 3152 3151 3151 3150 3150 3149 3148 3148 3147
3143 3144 3146 3147 3148 3149 3150 3151 3151 3152 3152 3152 3153 3153 3153 3153 3153 3153 3153 3153 3153 3152 3152 3152 3152 3152 3152 3152 3151 3151 3151 3151 3151 3150 3150 3149 3149 3148 3147 3147 3146 3145
3141 3143 3144 3146 3147 3147 3148 3149 3150 3150 3150 3151 3151 3151 3151 3151 3151 3151 3151 3151 3151 3151 3150 3151 3151 3150 3150 3150 3150 3150 3149 3149 3149 3149 3148 3148 3147 3146 3146 3145 3144 3144
3139 3141 3142 3144 3145 3145 3146 3147 3148 3148 3148 3149 3149 3149 3149 3149 3149 3149 3149 3149 3149 3149 3149 3149 3149 3149 3149 3148 3148 3148 3148 3148 3148 3147 3147 3146 3145 3145 3144 3143 3142 3142
3137 3139 3140 3141 3142 3143 3144 3145 3146 3146 3146 3147 3147 3147 3147 3147 3147 3147 3147 3147 3147 3147 3147 3147 3147 3147 3147 3147 3146 3146 3146 3146 3146 3146 3145 3144 3144 3143 3142 3141 3141 3140
3135 3136 3138 3139 3140 3141 3142 3143 3144 3144 3144 3145 3145 3145 3145 3145 3145 3145 3145 3145 3145 3145 3145 3145 3145 3145 3145 3145 3145 3144 3144 3144 3144 3144 3143 3142 3142 3141 3140 3139 3139 3138
3133 3134 3136 3137 3138 3139 3140 3141 3142 3142 3142 3143 3143 3143 3143 3143 3143 3143 3143 3143 3143 3143 3143 3143 3143 3143 3143 3143 3143 3142 3142 3142 3142 3142 3141 3141 3140 3139 3138 3138 3137 3137
3130 3132 3133 3135 3136 3137 3138 3139 3139 3140 3140 3141 3141 3141 3141 3141 3141 3141 3141 3141 3141 3141 3141 3141 3141 3141 3141 3141 3141 3140 3140 3140 3140 3140 3140 3139 3138 3137 3136 3136 3135 3135
3128 3129 3131 3132 3133 3134 3135 3136 3137 3138 3138 3139 3139 3139 3139 3139 3139 3139 3139 3139 3139 3139 3139 3139 3139 3139 3139 3139 3139 3138 3138 3138 3138 3138 3138 3137 3136 3135 3135 3134 3134 3134
3125 3127 3128 3129 3130 3131 3133 3134 3135 3135 3136 3136 3137 3137 3137 3137 3137 3137 3137 3137 3137 3137 3137 3137 3137 3137 3137 3137 3137 3137 3136 3136 3136 3136 3136 3135 3134 3134 3133 3132 3132 3132
3123 3124 3125 3126 3128 3129 3130 3131 3132 3133 3133 3134 3134 3135 3135 3135 3135 3135 3135 3134 3134 3134 3134 3134 3134 3135 3135 3135 3135 3135 3134 3134 3134 3134 3134 3133 3132 3132 3131 3131 3130 3130
3120 3121 3122 3124 3125 3126 3127 3128 3129 3130 3131 3131 3132 3132 3132 3132 3132 3132 3132 3132 3132 3132 3132 3132 3132 3132 3133 3133 3133 3132 3132 3132 3132 3132 3132 3131 3131 3130 3129 3129 3128 3128
3117 3118 3120 3121 3122 3123 3124 3125 3126 3127 3128 3128 3129 3129 3130 3130 3130 3130 3130 3130 3129 3129 3129 3129 3130 3130 3130 3130 3130 3130 3130 3129 3130 3130 3130 3129 3129 3128 3128 3127 3127 3127
3114 3116 3117 3118 3119 3120 3121 3122 3123 3124 3125 3126 3126 3127 3127 3127 3127 3127 3127 3127 3127 3127 3127 3127 3127 3127 3128 3128 3128 3128 3127 3127 3127 3127 3128 3128 3127 3127 3127 3126 3126 3126
3112 3113 3114 3115 3116 3117 3118 3119 3120 3121 3122 3123 3124 3124 3124 3125 3125 3125 3125 3125 3124 3124 3124 3125 3125 3125 3125 3125 3125 3125 3125 3125 3125 3125 3125 3126 3126 3126 3125 3125 3125 3125
3109 3110 3111 3112 3113 3114 3115 3116 3118 3119 3119 3120 3121 3121 3121 3122 3122 3122 3122 3122 3122 3122 3122 3122 3122 3122 3122 3123 3123 3123 3123 3123 3123 3123 3123 3124 3124 3124 3124 3123 3123 3123
3106 3107 3108 3109 3110 3111 3112 3113 3114 3115 3116 3117 3118 3118 3118 3119 3119 3119 3119 3119 3119 3119 3119 3119 3119 3119 3120 3120 3120 3121 3121 3121 3121 3121 3122 3122 3122 3122 3122 3122 3122 3122
3103 3104 3105 3106 3107 3108 3109 3110 3111 3112 3113 3114 3115 3115 3115 3115 3115 3115 3115 3115 3115 3116 3116 3117 3117 3117 3117 3118 3118 3119 3119 3120 3120 3121 3121 3121 3121 3121 3121 3121 3121 3121
3100 3101 3102 3103 3104 3105 3106 3107 3108 3109 3110 3111 3111 3111 3112 3112 3112 3112 3112 3112 3113 3113 3114 3114 3114 3115 3116 3116 3117 3117 3118 3119 3120 3120 3121 3121 3120 3120 3120 3120 3120 3120
3097 3098 3099 3100 3101 3102 3102 3103 3105 3106 3107 3107 3108 3108 3108 3109 3109 3109 3109 3110 3110 3111 3111 3112 3112 3113 3114 3114 3115 3116 3117 3117 3117 3118 3118 3118 3118 3118 3118 3118 3118 3118